Nueva Hesperides International Airport

Jump to: basic info | weather | frequencies | runways | comments

Related pages: nearby airports | nearby navaids | notams | map

Basic information (top)

Codes: STY SUSO
Location: lon -31.438499, lat -57.985298, elev 187 ft / 57 m msl
Status: medium_airport

Weather (top)

Current conditions (rec'd 2015/01/29 23:00Z):

SUSO 292300Z 18008KT CAVOK 24/20 Q1016

Airport forecast (rec'd 2015/01/28 18:27Z):

TAF SUSO 281700Z 2818/2918 24015KT 9999 SCT030 BKN200 TX25/2919Z TN19/2909 
      TEMPO 2815/ 2900 
      TEMPO 2818/2903 35010KT 5000 RA PROB30 
      TEMPO 2818/2803 33015G28KT 3000 TSRA BKN015 FEW040CB OVC070

Frequencies (top)

Verify before use: may be inaccurate or out of date.

RDO: 286 MHz (SALTO RDO)
TWR: 118.8 MHz (SALTO TWR)

Runways (top)

05/23: 5,210 x 148 ft (1,588 x 45 m) — paved — lighted

13/31: 2,461 x 164 ft (750 x 50 m) — grass — not lighted

Latest comments (top)

No comments yet for Nueva Hesperides International Airport

More... (top)

See also NOTAMs and nearby airports and navaids, or visit the Nueva Hesperides International Airport page at the main OurAirports website..